Fairmont, MN

8:53 PM CST on February 24, 2017 (GMT -0600)
Fairmont Municipal

Weather History for KFRM - February, 2014

Change the Weather History Date:

Tuesday, February 4, 2014

  Actual Average Record
Temperature  
Mean Temperature 6 °F -  
Max Temperature 10 °F 21 °F 60 °F (2005)
Min Temperature 1 °F 4 °F -20 °F (1979)
Degree Days  
Heating Degree Days 60    
Moisture  
Dew Point -7 °F    
Average Humidity 59    
Maximum Humidity 78    
Minimum Humidity 18    
Precipitation  
Precipitation 0.00 in - - ()
Sea Level Pressure  
Sea Level Pressure 30.39 in    
Wind  
Wind Speed 12 mph (NNW)    
Max Wind Speed 23 mph    
Max Gust Speed 28 mph    
Visibility 10 miles    
Events      
Averages and records for this station are not official NWS values.
T = Trace of Precipitation, MM = Missing Value Source: NWS Daily Summary

Daily Weather History Graph

Daily Weather History Graph

Search for Another Location

Airport or City:

Trip Planner

Search our weather history database for the weather conditions in past years. The results will help you decide how hot, cold, wet, or windy it might be!

Date:

Astronomy

Feb. 04, 2014 Rise Set
Actual Time 7:30 AM CST 5:33 PM CST
Civil Twilight 7:00 AM CST 6:03 PM CST
Nautical Twilight 6:26 AM CST 6:37 PM CST
Astronomical Twilight 5:52 AM CST 7:11 PM CST
Moon 9:57 AM CST (2/4) 11:40 PM CST (2/4)
Length of Visible Light 11h 02m
Length of Day
10h 02m
Waxing Crescent, 29% of the Moon is Illuminated
Feb 4
Waxing Crescent
Feb 6
First Quarter
Feb 14
Full
Feb 22
Last Quarter
Mar 1
New

Hourly Weather History & Observations

Time (CST) Temp. Windchill Dew Point Humidity Pressure Visibility Wind Dir Wind Speed Gust Speed Precip Events Conditions
12:15 AM 10.4 °F -1.5 °F 1.4 °F 67% 30.34 in 10.0 mi North 8.1 mph - N/A   Overcast
12:35 AM 10.4 °F -2.4 °F 1.4 °F 67% 30.34 in 10.0 mi North 9.2 mph - N/A   Overcast
12:55 AM 10.4 °F -0.4 °F 3.2 °F 73% 30.34 in 10.0 mi North 6.9 mph - N/A   Overcast
1:15 AM 10.4 °F 2.2 °F - N/A% 30.35 in 10.0 mi North 4.6 mph - N/A   Overcast
1:35 AM 10.4 °F 0.8 °F -25.6 °F 18% 30.35 in 10.0 mi North 5.8 mph - N/A   Overcast
1:55 AM 8.6 °F - -23.8 °F 22% 30.36 in 10.0 mi North - - N/A   Overcast
2:15 AM 8.6 °F -1.3 °F -18.4 °F 28% 30.37 in 10.0 mi North 5.8 mph - N/A   Overcast
2:35 AM 10.4 °F -0.4 °F -16.6 °F 29% 30.37 in 10.0 mi North 6.9 mph - N/A   Overcast
2:55 AM 10.4 °F -1.5 °F -13.0 °F 34% 30.37 in 10.0 mi North 8.1 mph - N/A   Overcast
3:15 AM 10.4 °F -2.4 °F -11.2 °F 37% 30.37 in 10.0 mi North 9.2 mph - N/A   Overcast
3:35 AM 8.6 °F -3.7 °F -9.4 °F 44% 30.36 in 10.0 mi North 8.1 mph - N/A   Overcast
3:55 AM 8.6 °F -1.3 °F -9.4 °F 44% 30.36 in 10.0 mi North 5.8 mph - N/A   Overcast
4:15 AM 6.8 °F -2.0 °F -9.4 °F 48% 30.37 in 10.0 mi North 4.6 mph - N/A   Overcast
4:35 AM 6.8 °F -4.8 °F -9.4 °F 48% 30.37 in 10.0 mi North 6.9 mph - N/A   Overcast
4:55 AM 5.0 °F -2.1 °F -7.6 °F 56% 30.38 in 10.0 mi North 3.5 mph - N/A   Overcast
5:15 AM 6.8 °F - -5.8 °F 56% 30.39 in 10.0 mi North - - N/A   Overcast
5:35 AM 3.2 °F -9.1 °F -9.4 °F 56% 30.39 in 10.0 mi North 6.9 mph - N/A   Scattered Clouds
5:55 AM 3.2 °F - -7.6 °F 61% 30.39 in 10.0 mi North - - N/A   Scattered Clouds
6:15 AM 1.4 °F -11.3 °F -5.8 °F 72% 30.38 in 10.0 mi North 6.9 mph - N/A   Overcast
6:35 AM 3.2 °F -10.3 °F -4.0 °F 72% 30.39 in 10.0 mi North 8.1 mph - N/A   Overcast
6:55 AM 3.2 °F -12.2 °F -4.0 °F 72% 30.39 in 10.0 mi North 10.4 mph - N/A   Overcast
7:15 AM 5.0 °F -10.0 °F -2.2 °F 72% 30.39 in 10.0 mi North 10.4 mph - N/A   Overcast
7:35 AM 5.0 °F -10.0 °F -2.2 °F 72% 30.40 in 10.0 mi NNW 10.4 mph - N/A   Overcast
7:55 AM 5.0 °F -10.0 °F -2.2 °F 72% 30.41 in 10.0 mi NNW 10.4 mph - N/A   Overcast
8:15 AM 3.2 °F -13.1 °F -2.2 °F 78% 30.41 in 10.0 mi NNW 11.5 mph - N/A   Overcast
8:35 AM 3.2 °F -13.9 °F -4.0 °F 72% 30.42 in 10.0 mi NNW 12.7 mph - N/A   Overcast
8:55 AM 3.2 °F -13.1 °F -4.0 °F 72% 30.43 in 10.0 mi NNW 11.5 mph - N/A   Overcast
9:15 AM 3.2 °F -13.9 °F -2.2 °F 78% 30.43 in 10.0 mi NNW 12.7 mph - N/A   Overcast
9:35 AM 3.2 °F -13.9 °F -4.0 °F 72% 30.42 in 10.0 mi NNW 12.7 mph - N/A   Scattered Clouds
9:55 AM 3.2 °F -13.9 °F -4.0 °F 72% 30.42 in 10.0 mi North 12.7 mph - N/A   Clear
10:15 AM 3.2 °F -14.6 °F -2.2 °F 78% 30.41 in 10.0 mi North 13.8 mph - N/A   Clear
10:35 AM 3.2 °F -15.9 °F -2.2 °F 78% 30.41 in 10.0 mi North 16.1 mph - N/A   Clear
10:55 AM 5.0 °F -13.0 °F -2.2 °F 72% 30.42 in 10.0 mi North 15.0 mph - N/A   Clear
11:15 AM 5.0 °F -13.6 °F -0.4 °F 78% 30.41 in 10.0 mi North 16.1 mph - N/A   Clear
11:35 AM 6.8 °F -11.8 °F -2.2 °F 67% 30.41 in 10.0 mi North 17.3 mph - N/A   Clear
11:55 AM 6.8 °F -10.7 °F -4.0 °F 61% 30.42 in 10.0 mi North 15.0 mph - N/A   Clear
12:15 PM 6.8 °F -10.7 °F -2.2 °F 67% 30.42 in 10.0 mi NNW 15.0 mph - N/A   Clear
12:35 PM 6.8 °F -11.8 °F -2.2 °F 67% 30.39 in 10.0 mi North 17.3 mph - N/A   Clear
12:55 PM 6.8 °F -12.4 °F -2.2 °F 67% 30.38 in 10.0 mi North 18.4 mph - N/A   Clear
1:15 PM 6.8 °F -12.9 °F -4.0 °F 61% 30.38 in 10.0 mi NNW 19.6 mph - N/A   Clear
1:35 PM 6.8 °F -12.4 °F -5.8 °F 56% 30.38 in 10.0 mi North 18.4 mph - N/A   Clear
1:55 PM 6.8 °F -12.4 °F -5.8 °F 56% 30.39 in 10.0 mi North 18.4 mph - N/A   Clear
2:15 PM 6.8 °F -12.4 °F -4.0 °F 61% 30.38 in 10.0 mi North 18.4 mph - N/A   Clear
2:35 PM 6.8 °F -11.3 °F -5.8 °F 56% 30.38 in 10.0 mi NNW 16.1 mph 21.9 mph N/A   Clear
2:55 PM 6.8 °F -12.9 °F -5.8 °F 56% 30.38 in 10.0 mi NNW 19.6 mph - N/A   Clear
3:15 PM 6.8 °F -13.4 °F -5.8 °F 56% 30.38 in 10.0 mi NNW 20.7 mph - N/A   Clear
3:35 PM 5.0 °F -15.2 °F -5.8 °F 61% 30.38 in 10.0 mi NNW 19.6 mph - N/A   Clear
3:55 PM 5.0 °F -15.7 °F -7.6 °F 56% 30.38 in 10.0 mi North 20.7 mph - N/A   Clear
4:15 PM 5.0 °F -14.7 °F -7.6 °F 56% 30.38 in 10.0 mi NNW 18.4 mph 24.2 mph N/A   Clear
4:35 PM 3.2 °F -19.0 °F -9.4 °F 56% 30.37 in 10.0 mi NNW 23.0 mph - N/A   Clear
4:55 PM 3.2 °F -18.1 °F -9.4 °F 56% 30.37 in 10.0 mi North 20.7 mph - N/A   Clear
5:15 PM 3.2 °F -18.6 °F -9.4 °F 56% 30.38 in 10.0 mi NNW 21.9 mph - N/A   Clear
5:35 PM 3.2 °F -17.1 °F -9.4 °F 56% 30.38 in 10.0 mi NNW 18.4 mph 24.2 mph N/A   Clear
5:55 PM 1.4 °F -19.9 °F -11.2 °F 56% 30.39 in 10.0 mi North 19.6 mph - N/A   Clear
6:15 PM 1.4 °F -20.5 °F -11.2 °F 56% 30.39 in 10.0 mi North 20.7 mph - N/A   Mostly Cloudy
6:35 PM 1.4 °F -19.4 °F -9.4 °F 61% 30.40 in 10.0 mi North 18.4 mph - N/A   Overcast
6:55 PM 1.4 °F -19.9 °F -9.4 °F 61% 30.39 in 10.0 mi North 19.6 mph - N/A   Mostly Cloudy
7:15 PM 1.4 °F -18.8 °F -11.2 °F 56% 30.39 in 10.0 mi NNW 17.3 mph 25.3 mph N/A   Scattered Clouds
7:35 PM 1.4 °F -20.5 °F -9.4 °F 61% 30.40 in 10.0 mi NNW 20.7 mph 26.5 mph N/A   Overcast
7:55 PM 1.4 °F -19.9 °F -11.2 °F 56% 30.40 in 10.0 mi North 19.6 mph 23.0 mph N/A   Overcast
8:15 PM 1.4 °F -21.0 °F -9.4 °F 61% 30.40 in 10.0 mi North 21.9 mph 25.3 mph N/A   Overcast
8:35 PM 1.4 °F -19.4 °F -9.4 °F 61% 30.39 in 10.0 mi NNW 18.4 mph - N/A   Overcast
8:55 PM 3.2 °F -18.1 °F -9.4 °F 56% 30.39 in 10.0 mi NNW 20.7 mph 25.3 mph N/A   Overcast
9:15 PM 3.2 °F -17.6 °F -9.4 °F 56% 30.39 in 10.0 mi NNW 19.6 mph - N/A   Overcast
9:35 PM 1.4 °F -19.4 °F -9.4 °F 61% 30.40 in 10.0 mi NNW 18.4 mph 24.2 mph N/A   Overcast
9:55 PM 1.4 °F -19.4 °F -9.4 °F 61% 30.41 in 10.0 mi NNW 18.4 mph 24.2 mph N/A   Overcast
10:15 PM 1.4 °F -18.8 °F -9.4 °F 61% 30.41 in 10.0 mi NNW 17.3 mph 23.0 mph N/A   Overcast
10:35 PM 1.4 °F -21.0 °F -11.2 °F 56% 30.41 in 10.0 mi NNW 21.9 mph 25.3 mph N/A   Overcast
10:55 PM 1.4 °F -19.4 °F -11.2 °F 56% 30.42 in 10.0 mi NNW 18.4 mph 24.2 mph N/A   Overcast
11:15 PM 1.4 °F -19.4 °F -11.2 °F 56% 30.42 in 10.0 mi NNW 18.4 mph 25.3 mph N/A   Overcast
11:35 PM 1.4 °F -19.9 °F - N/A% 30.43 in 10.0 mi NNW 19.6 mph 27.6 mph N/A   Overcast
11:55 PM 1.4 °F -19.4 °F - N/A% 30.43 in 10.0 mi NNW 18.4 mph - N/A   Overcast